Location: Buffign�court
(47.8126°N, 6.0176°E)
Time: 02:56:38
(UTC+00:00)

Cosmos 2263 Rocket - Pass Details

Date: 16 June 2021
Orbit: 822 x 850 km, 71.0° (Epoch: 04 August)

Event Time Altitude Azimuth Distance (km) Brightness Sun altitude
Rises 20:47:34 0° 325° (NW) 3,419 7.8 -9.3°
Reaches altitude 10° 20:50:15 10° 315° (NW) 2,482 6.3 -9.6°
Maximum altitude 20:55:10 31° 256° (WSW) 1,460 3.7 -10.1°
Drops below altitude 10° 21:00:04 10° 196° (SSW) 2,470 4.3 -10.6°
Enters shadow 21:01:50 - 188° (S) 3,075 4.7 -10.8°
